Language: 


Des rapports , des résumés tant et plus, au choix de chacun....


Données Historiques de Météogheer
Journalier Rapport pour Octobre 20, 2017 Unitée:  Métrique    Impériale   Les deux
Suivant Jour »
Journalier Hebdomadaire Mensuel Annuel Sur mesure
  Max: Min: Moyenne:
Température: 16.8 °C 0.0 °C 10.7 °C
Point de rosée: 15.0 °C 8.0 °C 11.7 °C
Humidité: 94% 0% 65%
Vent: 31.4km/h 0.0km/h 15.6km/h
Rafales: 31.4km/h - -
Vent- - SW
Pression: 1013.1 hPa 1002.9 hPa -
Pluie: 5.3 mm    
Historical Graphs
 
 
Données tabulaires pour Octobre 20, 2017
Heure Température Point de rosée Pression Vent Vent Rafales Humidité Pluie Taux (Horaire) Conditions
00:02 16.6 °C 15.0 °C 1005.0 hPa SSW 7.9 km/h 13.0 km/h 87% 0.0 mm
00:07 16.6 °C 15.0 °C 1005.0 hPa South 9.7 km/h 13.0 km/h 87% 0.0 mm
00:12 16.4 °C 14.0 °C 1005.0 hPa SSW 7.9 km/h 13.0 km/h 87% 0.0 mm
00:17 16.3 °C 14.0 °C 1005.0 hPa South 10.1 km/h 10.1 km/h 88% 0.0 mm
00:22 16.3 °C 14.0 °C 1005.0 hPa SSW 7.9 km/h 10.8 km/h 88% 0.0 mm
00:27 16.3 °C 15.0 °C 1005.0 hPa SSW 9.7 km/h 13.7 km/h 89% 0.0 mm
00:32 16.4 °C 15.0 °C 1006.0 hPa South 10.5 km/h 13.7 km/h 89% 0.0 mm
00:37 16.3 °C 15.0 °C 1006.0 hPa South 12.6 km/h 13.7 km/h 89% 0.0 mm
00:42 16.4 °C 15.0 °C 1006.0 hPa SSW 8.7 km/h 14.0 km/h 89% 0.0 mm
00:47 16.4 °C 15.0 °C 1005.0 hPa South 13.0 km/h 14.0 km/h 89% 0.0 mm
00:52 16.4 °C 15.0 °C 1005.0 hPa SSW 8.7 km/h 19.8 km/h 89% 0.0 mm
00:57 16.5 °C 15.0 °C 1005.0 hPa SSW 6.4 km/h 19.8 km/h 88% 0.0 mm
01:02 16.4 °C 14.0 °C 1005.0 hPa South 10.1 km/h 17.7 km/h 87% 0.0 mm
01:07 16.5 °C 15.0 °C 1005.0 hPa South 11.6 km/h 16.3 km/h 87% 0.0 mm
01:12 16.5 °C 15.0 °C 1005.0 hPa SSW 9.0 km/h 16.3 km/h 87% 0.0 mm
01:17 16.4 °C 14.0 °C 1005.0 hPa SW 7.9 km/h 20.1 km/h 87% 0.0 mm
01:22 16.3 °C 14.0 °C 1005.0 hPa South 9.3 km/h 20.1 km/h 88% 0.0 mm
01:27 16.3 °C 14.0 °C 1005.0 hPa SSW 6.9 km/h 19.8 km/h 88% 0.0 mm
01:32 16.3 °C 14.0 °C 1005.0 hPa SSW 9.3 km/h 17.7 km/h 88% 0.0 mm
01:37 16.3 °C 14.0 °C 1005.0 hPa South 9.7 km/h 17.7 km/h 88% 0.0 mm
01:43 16.3 °C 14.0 °C 1005.0 hPa South 11.9 km/h 24.5 km/h 88% 0.0 mm
01:48 16.0 °C 14.0 °C 1005.0 hPa SSW 16.3 km/h 24.5 km/h 88% 0.0 mm
01:53 15.9 °C 14.0 °C 1005.0 hPa SSW 10.1 km/h 17.7 km/h 88% 0.0 mm
01:58 15.9 °C 14.0 °C 1005.0 hPa South 11.6 km/h 19.5 km/h 88% 0.0 mm
02:03 15.9 °C 14.0 °C 1003.9 hPa South 10.1 km/h 19.5 km/h 88% 0.0 mm
02:08 15.8 °C 14.0 °C 1003.9 hPa SSW 12.6 km/h 19.5 km/h 88% 0.0 mm
02:13 15.8 °C 14.0 °C 1003.9 hPa South 16.9 km/h 25.6 km/h 87% 0.0 mm
02:18 15.8 °C 14.0 °C 1003.9 hPa South 15.4 km/h 25.6 km/h 87% 0.0 mm
02:23 15.8 °C 14.0 °C 1003.9 hPa SSE 11.9 km/h 19.5 km/h 87% 0.0 mm
02:28 15.9 °C 14.0 °C 1003.9 hPa SSW 8.7 km/h 19.1 km/h 87% 0.0 mm
02:33 15.9 °C 14.0 °C 1002.9 hPa SSW 16.6 km/h 20.9 km/h 87% 0.0 mm
02:38 15.9 °C 14.0 °C 1002.9 hPa SSW 17.2 km/h 20.9 km/h 87% 0.0 mm
02:43 15.9 °C 14.0 °C 1002.9 hPa South 9.0 km/h 23.0 km/h 87% 0.0 mm
02:48 15.9 °C 14.0 °C 1003.9 hPa SSW 9.7 km/h 23.0 km/h 87% 0.0 mm
02:53 15.9 °C 14.0 °C 1003.9 hPa South 9.7 km/h 25.6 km/h 87% 0.3 mm
02:58 15.9 °C 14.0 °C 1003.9 hPa SSW 9.0 km/h 25.6 km/h 87% 0.5 mm
03:03 0.0 °C 14.0 °C 1005.0 hPa SSW 12.2 km/h 20.4 km/h 0% 0.5 mm
03:08 0.0 °C 14.0 °C 1005.0 hPa South 6.9 km/h 17.2 km/h 0% 0.5 mm
03:13 0.0 °C 14.0 °C 1005.0 hPa SSW 18.0 km/h 18.0 km/h 0% 0.5 mm
03:18 0.0 °C 14.0 °C 1003.9 hPa SSW 8.7 km/h 18.0 km/h 0% 0.5 mm
03:23 0.0 °C 14.0 °C 1003.9 hPa SW 14.0 km/h 21.2 km/h 0% 0.5 mm
03:28 0.0 °C 14.0 °C 1003.9 hPa SSW 8.7 km/h 21.2 km/h 0% 0.5 mm
03:33 0.0 °C 14.0 °C 1003.9 hPa SSW 16.3 km/h 20.6 km/h 0% 0.5 mm
03:39 0.0 °C 14.0 °C 1003.9 hPa South 10.1 km/h 20.6 km/h 0% 0.5 mm
03:44 0.0 °C 14.0 °C 1003.9 hPa SSW 13.7 km/h 16.9 km/h 0% 0.5 mm
03:49 0.0 °C 14.0 °C 1002.9 hPa South 12.6 km/h 16.9 km/h 0% 0.5 mm
03:54 0.0 °C 14.0 °C 1002.9 hPa South 14.8 km/h 16.9 km/h 0% 0.5 mm
03:59 0.0 °C 14.0 °C 1002.9 hPa SSW 17.7 km/h 17.7 km/h 0% 0.5 mm
04:04 0.0 °C 14.0 °C 1003.9 hPa SSW 13.0 km/h 17.7 km/h 0% 0.5 mm
04:09 0.0 °C 14.0 °C 1003.9 hPa SSW 10.1 km/h 17.7 km/h 0% 0.5 mm
04:14 0.0 °C 14.0 °C 1003.9 hPa SSW 14.0 km/h 17.7 km/h 0% 0.5 mm
04:19 0.0 °C 14.0 °C 1003.9 hPa South 12.2 km/h 17.7 km/h 0% 0.5 mm
04:24 0.0 °C 14.0 °C 1003.9 hPa South 11.9 km/h 14.0 km/h 0% 0.5 mm
04:29 0.0 °C 14.0 °C 1003.9 hPa SSW 9.7 km/h 15.8 km/h 0% 0.5 mm
04:34 0.0 °C 14.0 °C 1003.9 hPa South 11.6 km/h 19.5 km/h 0% 0.5 mm
04:39 0.0 °C 14.0 °C 1003.9 hPa SW 20.9 km/h 21.2 km/h 0% 0.5 mm
04:44 0.0 °C 14.0 °C 1003.9 hPa South 11.9 km/h 21.2 km/h 0% 0.5 mm
04:49 0.0 °C 14.0 °C 1002.9 hPa WSW 13.7 km/h 21.2 km/h 0% 0.5 mm
04:54 0.0 °C 14.0 °C 1002.9 hPa SW 15.4 km/h 21.2 km/h 0% 0.5 mm
04:59 0.0 °C 14.0 °C 1002.9 hPa WSW 12.2 km/h 21.2 km/h 0% 0.5 mm
05:04 0.0 °C 14.0 °C 1002.9 hPa SSW 19.5 km/h 19.5 km/h 0% 0.5 mm
05:09 0.0 °C 14.0 °C 1002.9 hPa WSW 11.1 km/h 19.5 km/h 0% 0.5 mm
05:14 0.0 °C 14.0 °C 1002.9 hPa SSW 12.2 km/h 15.4 km/h 0% 0.5 mm
05:19 0.0 °C 14.0 °C 1002.9 hPa WSW 15.8 km/h 17.2 km/h 0% 0.5 mm
05:23 0.0 °C 14.0 °C 1002.9 hPa WSW 6.9 km/h 17.2 km/h 0% 0.5 mm
05:24 0.0 °C 14.0 °C 1002.9 hPa WSW 10.1 km/h 17.2 km/h 0% 0.5 mm
05:29 0.0 °C 14.0 °C 1002.9 hPa WSW 10.1 km/h 15.8 km/h 0% 0.5 mm
05:34 0.0 °C 14.0 °C 1002.9 hPa SW 16.6 km/h 20.1 km/h 0% 0.5 mm
05:39 0.0 °C 14.0 °C 1002.9 hPa SSW 11.6 km/h 20.1 km/h 0% 0.5 mm
05:44 0.0 °C 14.0 °C 1002.9 hPa SSW 11.9 km/h 16.6 km/h 0% 0.5 mm
05:49 0.0 °C 14.0 °C 1003.9 hPa SSW 7.9 km/h 14.0 km/h 0% 0.5 mm
05:54 0.0 °C 14.0 °C 1003.9 hPa SSW 7.9 km/h 14.0 km/h 0% 0.5 mm
05:59 0.0 °C 14.0 °C 1003.9 hPa SSW 10.1 km/h 13.7 km/h 0% 0.5 mm
06:04 0.0 °C 14.0 °C 1003.9 hPa SW 9.7 km/h 12.2 km/h 0% 0.5 mm
06:09 0.0 °C 14.0 °C 1003.9 hPa SSW 9.0 km/h 11.9 km/h 0% 0.5 mm
06:14 0.0 °C 14.0 °C 1003.9 hPa SSW 9.0 km/h 12.6 km/h 0% 0.5 mm
06:19 0.0 °C 14.0 °C 1003.9 hPa SW 9.3 km/h 13.0 km/h 0% 0.5 mm
06:24 0.0 °C 14.0 °C 1003.9 hPa SW 8.7 km/h 13.7 km/h 0% 0.5 mm
06:29 0.0 °C 14.0 °C 1003.9 hPa SW 14.8 km/h 16.9 km/h 0% 0.5 mm
06:34 0.0 °C 14.0 °C 1003.9 hPa SW 14.0 km/h 16.9 km/h 0% 0.5 mm
06:39 0.0 °C 14.0 °C 1003.9 hPa WSW 12.6 km/h 17.7 km/h 0% 0.5 mm
06:44 0.0 °C 14.0 °C 1003.9 hPa SW 15.8 km/h 21.2 km/h 0% 0.5 mm
06:49 0.0 °C 14.0 °C 1005.0 hPa WSW 16.9 km/h 21.2 km/h 0% 0.5 mm
06:54 0.0 °C 14.0 °C 1005.0 hPa SW 12.2 km/h 17.7 km/h 0% 0.5 mm
06:59 0.0 °C 14.0 °C 1005.0 hPa SW 14.8 km/h 17.7 km/h 0% 0.5 mm
07:04 0.0 °C 14.0 °C 1005.0 hPa SW 10.1 km/h 21.2 km/h 0% 0.5 mm
07:09 0.0 °C 14.0 °C 1005.0 hPa SSW 9.0 km/h 21.2 km/h 0% 0.5 mm
07:14 0.0 °C 14.0 °C 1005.0 hPa SW 10.8 km/h 20.9 km/h 0% 0.5 mm
07:19 0.0 °C 14.0 °C 1005.0 hPa SW 10.1 km/h 21.2 km/h 0% 0.5 mm
07:24 0.0 °C 14.0 °C 1005.0 hPa SW 14.0 km/h 21.2 km/h 0% 0.5 mm
07:29 0.0 °C 14.0 °C 1005.0 hPa South 10.5 km/h 22.7 km/h 0% 0.5 mm
07:34 0.0 °C 14.0 °C 1005.0 hPa SW 12.6 km/h 22.7 km/h 0% 0.5 mm
07:39 0.0 °C 14.0 °C 1005.0 hPa SW 13.0 km/h 16.3 km/h 0% 0.5 mm
07:44 0.0 °C 14.0 °C 1005.0 hPa SW 12.6 km/h 17.7 km/h 0% 0.5 mm
07:49 0.0 °C 14.0 °C 1005.0 hPa South 11.9 km/h 17.7 km/h 0% 0.5 mm
07:54 0.0 °C 14.0 °C 1005.0 hPa SW 8.7 km/h 14.0 km/h 0% 0.5 mm
07:59 0.0 °C 14.0 °C 1005.0 hPa WSW 19.8 km/h 19.8 km/h 0% 0.5 mm
08:05 0.0 °C 14.0 °C 1005.0 hPa SSW 15.4 km/h 19.8 km/h 0% 0.5 mm
08:10 0.0 °C 14.0 °C 1005.0 hPa SSW 15.4 km/h 19.8 km/h 0% 0.5 mm
08:15 0.0 °C 14.0 °C 1005.0 hPa SSW 15.4 km/h 19.8 km/h 0% 0.5 mm
08:20 12.3 °C 12.0 °C 1005.0 hPa SSW 15.4 km/h 15.4 km/h 94% 0.0 mm
08:25 12.3 °C 12.0 °C 1005.0 hPa SSW 15.4 km/h 15.4 km/h 94% 0.0 mm
08:30 12.3 °C 12.0 °C 1005.0 hPa SSW 15.4 km/h 15.4 km/h 94% 0.0 mm
08:35 12.3 °C 12.0 °C 1005.0 hPa SSW 15.4 km/h 15.4 km/h 94% 0.0 mm
08:40 12.3 °C 12.0 °C 1005.0 hPa SSW 15.4 km/h 15.4 km/h 94% 0.0 mm
08:45 12.3 °C 12.0 °C 1006.0 hPa SSW 15.4 km/h 15.4 km/h 94% 0.0 mm
08:50 12.3 °C 12.0 °C 1006.0 hPa SSW 15.4 km/h 15.4 km/h 94% 0.0 mm
08:55 12.3 °C 12.0 °C 1006.0 hPa SW 20.1 km/h 20.1 km/h 94% 0.0 mm
09:01 12.3 °C 12.0 °C 1006.0 hPa SW 20.1 km/h 20.1 km/h 94% 0.0 mm
09:06 12.3 °C 12.0 °C 1006.0 hPa SW 20.1 km/h 20.1 km/h 94% 0.0 mm
09:11 12.3 °C 12.0 °C 1006.0 hPa SW 20.1 km/h 20.1 km/h 94% 0.0 mm
09:16 12.3 °C 12.0 °C 1006.0 hPa SW 20.1 km/h 20.1 km/h 94% 0.0 mm
09:21 12.3 °C 12.0 °C 1006.0 hPa SW 20.1 km/h 20.1 km/h 94% 0.0 mm
09:26 12.3 °C 12.0 °C 1006.0 hPa SW 20.1 km/h 20.1 km/h 94% 0.0 mm
09:31 12.3 °C 12.0 °C 1007.0 hPa SW 20.1 km/h 20.1 km/h 94% 0.0 mm
09:36 12.3 °C 12.0 °C 1007.0 hPa SW 20.1 km/h 20.1 km/h 94% 0.0 mm
09:41 12.3 °C 12.0 °C 1007.0 hPa SW 20.1 km/h 20.1 km/h 94% 0.0 mm
09:46 12.3 °C 12.0 °C 1007.0 hPa SW 20.1 km/h 20.1 km/h 94% 0.0 mm
09:51 12.3 °C 12.0 °C 1007.0 hPa SW 20.1 km/h 20.1 km/h 94% 0.0 mm
09:56 12.3 °C 12.0 °C 1007.0 hPa SW 20.1 km/h 20.1 km/h 94% 0.0 mm
10:01 12.3 °C 12.0 °C 1008.0 hPa SW 20.1 km/h 20.1 km/h 94% 0.0 mm
10:06 12.3 °C 12.0 °C 1008.0 hPa SW 20.1 km/h 20.1 km/h 94% 0.0 mm
10:11 12.3 °C 12.0 °C 1008.0 hPa SW 20.1 km/h 20.1 km/h 94% 0.0 mm
10:16 12.3 °C 12.0 °C 1007.0 hPa SSW 24.5 km/h 24.5 km/h 94% 0.0 mm
10:21 12.3 °C 12.0 °C 1007.0 hPa SSW 24.5 km/h 24.5 km/h 94% 0.0 mm
10:26 12.3 °C 12.0 °C 1007.0 hPa SSW 24.5 km/h 24.5 km/h 94% 0.0 mm
10:32 12.3 °C 12.0 °C 1007.0 hPa SSW 24.5 km/h 24.5 km/h 94% 0.0 mm
10:37 12.3 °C 12.0 °C 1007.0 hPa SSW 24.5 km/h 24.5 km/h 94% 0.0 mm
10:42 12.3 °C 12.0 °C 1007.0 hPa SSW 24.5 km/h 24.5 km/h 94% 0.0 mm
10:47 12.3 °C 12.0 °C 1007.0 hPa SSW 20.1 km/h 20.1 km/h 94% 0.0 mm
10:52 12.3 °C 12.0 °C 1007.0 hPa SSW 15.8 km/h 20.1 km/h 94% 0.0 mm
10:57 12.3 °C 12.0 °C 1007.0 hPa SSW 15.8 km/h 20.1 km/h 94% 0.0 mm
11:02 12.3 °C 12.0 °C 1007.0 hPa SSW 15.8 km/h 20.1 km/h 94% 0.0 mm
11:07 12.3 °C 12.0 °C 1007.0 hPa WSW 16.9 km/h 16.9 km/h 94% 0.0 mm
11:12 12.3 °C 12.0 °C 1007.0 hPa WSW 16.9 km/h 16.9 km/h 94% 0.0 mm
11:17 12.3 °C 12.0 °C 1007.0 hPa WSW 16.9 km/h 16.9 km/h 94% 0.0 mm
11:22 12.3 °C 12.0 °C 1007.0 hPa WSW 16.9 km/h 16.9 km/h 94% 0.0 mm
11:27 12.3 °C 12.0 °C 1007.0 hPa WSW 16.9 km/h 16.9 km/h 94% 0.0 mm
11:32 12.3 °C 12.0 °C 1007.0 hPa WSW 16.9 km/h 16.9 km/h 94% 0.0 mm
11:37 12.3 °C 12.0 °C 1007.0 hPa WSW 16.9 km/h 16.9 km/h 94% 0.0 mm
11:42 12.3 °C 12.0 °C 1007.0 hPa WSW 16.9 km/h 16.9 km/h 94% 0.0 mm
11:48 12.3 °C 12.0 °C 1007.0 hPa WSW 16.9 km/h 16.9 km/h 94% 0.0 mm
11:53 12.3 °C 12.0 °C 1007.0 hPa WSW 15.8 km/h 17.2 km/h 94% 0.0 mm
11:58 12.3 °C 12.0 °C 1007.0 hPa WSW 15.8 km/h 17.2 km/h 94% 0.0 mm
12:03 12.3 °C 12.0 °C 1008.0 hPa SSW 21.2 km/h 21.2 km/h 94% 0.0 mm
12:08 12.3 °C 12.0 °C 1008.0 hPa SSW 21.2 km/h 21.2 km/h 94% 0.0 mm
12:13 12.3 °C 12.0 °C 1008.0 hPa WSW 21.2 km/h 21.6 km/h 94% 0.0 mm
12:18 12.3 °C 12.0 °C 1009.0 hPa WSW 21.2 km/h 21.6 km/h 94% 0.0 mm
12:23 12.3 °C 12.0 °C 1009.0 hPa WSW 21.2 km/h 21.6 km/h 94% 0.0 mm
12:28 12.3 °C 12.0 °C 1009.0 hPa WSW 21.2 km/h 21.6 km/h 94% 0.0 mm
12:33 12.3 °C 12.0 °C 1009.0 hPa WSW 21.2 km/h 21.6 km/h 94% 0.0 mm
12:38 12.3 °C 12.0 °C 1009.0 hPa WSW 21.2 km/h 21.6 km/h 94% 0.0 mm
12:43 12.3 °C 12.0 °C 1009.0 hPa SSW 18.3 km/h 18.3 km/h 94% 0.0 mm
12:48 12.3 °C 12.0 °C 1009.0 hPa SSW 18.3 km/h 18.3 km/h 94% 0.0 mm
12:53 12.3 °C 12.0 °C 1009.0 hPa SSW 18.3 km/h 18.3 km/h 94% 0.0 mm
12:58 12.3 °C 12.0 °C 1009.0 hPa SW 28.0 km/h 28.0 km/h 94% 0.0 mm
13:03 12.3 °C 12.0 °C 1009.0 hPa SW 17.2 km/h 28.0 km/h 94% 0.0 mm
13:08 12.3 °C 12.0 °C 1009.0 hPa South 14.0 km/h 28.0 km/h 94% 0.0 mm
13:13 12.3 °C 12.0 °C 1009.0 hPa SW 12.2 km/h 17.2 km/h 94% 0.0 mm
13:18 12.3 °C 12.0 °C 1009.0 hPa SW 12.2 km/h 17.2 km/h 94% 0.0 mm
13:24 12.3 °C 12.0 °C 1009.0 hPa SSW 17.2 km/h 17.2 km/h 94% 0.0 mm
13:29 12.3 °C 12.0 °C 1009.0 hPa SSW 17.2 km/h 17.2 km/h 94% 0.0 mm
13:34 14.5 °C 13.0 °C 1009.0 hPa SSW 17.2 km/h 17.2 km/h 91% 0.0 mm
13:39 14.6 °C 13.0 °C 1009.0 hPa SSW 17.2 km/h 17.2 km/h 91% 0.0 mm
13:44 14.7 °C 13.0 °C 1009.0 hPa SSW 17.2 km/h 17.2 km/h 91% 0.0 mm
13:49 14.7 °C 13.0 °C 1009.0 hPa SSW 17.2 km/h 17.2 km/h 91% 0.0 mm
13:54 14.7 °C 13.0 °C 1009.0 hPa SSW 17.2 km/h 17.2 km/h 91% 0.0 mm
13:59 14.7 °C 13.0 °C 1009.0 hPa SSW 17.2 km/h 17.2 km/h 91% 0.0 mm
14:04 14.7 °C 13.0 °C 1009.0 hPa SSW 17.2 km/h 17.2 km/h 91% 0.0 mm
14:09 15.0 °C 11.0 °C 1009.0 hPa SSW 17.2 km/h 17.2 km/h 78% 0.0 mm
14:11 15.0 °C 11.0 °C 1009.0 hPa SSW 17.2 km/h 17.2 km/h 78% 0.0 mm
14:16 15.0 °C 11.0 °C 1009.0 hPa SSW 17.2 km/h 17.2 km/h 78% 0.0 mm
14:21 15.0 °C 11.0 °C 1009.0 hPa SSW 17.2 km/h 17.2 km/h 78% 0.0 mm
14:26 15.1 °C 10.0 °C 1009.0 hPa SSW 17.2 km/h 17.2 km/h 73% 0.0 mm
14:31 15.2 °C 11.0 °C 1009.0 hPa SSW 17.2 km/h 17.2 km/h 73% 0.0 mm
14:36 15.2 °C 11.0 °C 1009.0 hPa SSW 17.2 km/h 17.2 km/h 73% 0.0 mm
14:41 15.6 °C 10.0 °C 1009.0 hPa SSW 17.2 km/h 17.2 km/h 70% 0.0 mm
14:46 16.1 °C 10.0 °C 1009.0 hPa SSW 17.2 km/h 17.2 km/h 68% 0.0 mm
14:47 16.1 °C 10.0 °C 1009.0 hPa SSW 17.2 km/h 17.2 km/h 68% 0.0 mm
14:52 16.1 °C 10.0 °C 1009.0 hPa SSW 17.2 km/h 17.2 km/h 68% 0.0 mm
14:57 16.1 °C 10.0 °C 1009.0 hPa SSW 17.2 km/h 17.2 km/h 68% 0.0 mm
15:02 16.8 °C 10.0 °C 1010.0 hPa SSW 17.2 km/h 17.2 km/h 64% 0.0 mm
15:07 16.8 °C 10.0 °C 1010.0 hPa SSW 17.2 km/h 17.2 km/h 63% 0.0 mm
15:12 16.8 °C 10.0 °C 1010.0 hPa SSW 17.2 km/h 17.2 km/h 63% 0.0 mm
15:17 16.7 °C 10.0 °C 1009.0 hPa SSW 17.2 km/h 17.2 km/h 63% 0.0 mm
15:22 16.5 °C 9.0 °C 1009.0 hPa SSW 17.2 km/h 17.2 km/h 59% 0.0 mm
15:27 16.3 °C 9.0 °C 1009.0 hPa SSW 17.2 km/h 17.2 km/h 60% 0.0 mm
15:32 16.3 °C 9.0 °C 1009.0 hPa SSW 17.2 km/h 17.2 km/h 59% 0.0 mm
15:37 16.3 °C 9.0 °C 1009.0 hPa SSW 17.2 km/h 17.2 km/h 59% 0.0 mm
15:42 16.3 °C 9.0 °C 1009.0 hPa SSW 17.2 km/h 17.2 km/h 59% 0.0 mm
15:47 16.3 °C 9.0 °C 1010.0 hPa SSW 17.2 km/h 17.2 km/h 59% 0.0 mm
15:52 16.3 °C 9.0 °C 1010.0 hPa SSW 17.2 km/h 17.2 km/h 59% 0.0 mm
15:57 16.3 °C 10.0 °C 1010.0 hPa WSW 31.4 km/h 31.4 km/h 66% 0.0 mm
16:02 16.3 °C 10.0 °C 1010.0 hPa WSW 31.4 km/h 31.4 km/h 66% 0.0 mm
16:07 16.5 °C 10.0 °C 1010.0 hPa WSW 31.4 km/h 31.4 km/h 65% 0.0 mm
16:12 16.3 °C 9.0 °C 1010.0 hPa WSW 31.4 km/h 31.4 km/h 62% 0.0 mm
16:17 16.2 °C 9.0 °C 1010.0 hPa WSW 31.4 km/h 31.4 km/h 62% 0.0 mm
16:22 16.1 °C 9.0 °C 1010.0 hPa WSW 31.4 km/h 31.4 km/h 61% 0.0 mm
16:27 16.1 °C 9.0 °C 1010.0 hPa WSW 31.4 km/h 31.4 km/h 60% 0.0 mm
16:32 16.2 °C 9.0 °C 1011.1 hPa WSW 31.4 km/h 31.4 km/h 60% 0.0 mm
16:36 16.2 °C 9.0 °C 1011.1 hPa WSW 31.4 km/h 31.4 km/h 62% 0.0 mm
16:41 16.2 °C 9.0 °C 1011.1 hPa WSW 31.4 km/h 31.4 km/h 59% 0.0 mm
16:46 15.7 °C 8.0 °C 1011.1 hPa WSW 31.4 km/h 31.4 km/h 60% 0.0 mm
16:51 15.4 °C 8.0 °C 1011.1 hPa WSW 31.4 km/h 31.4 km/h 62% 0.0 mm
16:52 15.4 °C 8.0 °C 1011.1 hPa WSW 31.4 km/h 31.4 km/h 62% 0.0 mm
16:57 15.2 °C 8.0 °C 1011.1 hPa WSW 31.4 km/h 31.4 km/h 62% 0.0 mm
17:02 15.4 °C 9.0 °C 1011.1 hPa WSW 31.4 km/h 31.4 km/h 64% 0.0 mm
17:04 15.4 °C 9.0 °C 1011.1 hPa WSW 31.4 km/h 31.4 km/h 64% 0.0 mm
17:09 15.3 °C 9.0 °C 1011.1 hPa WSW 31.4 km/h 31.4 km/h 66% 0.0 mm
17:14 15.1 °C 9.0 °C 1011.1 hPa WSW 31.4 km/h 31.4 km/h 66% 0.0 mm
17:19 15.0 °C 9.0 °C 1011.1 hPa WSW 31.4 km/h 31.4 km/h 66% 0.0 mm
17:24 14.9 °C 9.0 °C 1011.1 hPa WSW 31.4 km/h 31.4 km/h 68% 0.0 mm
17:29 14.6 °C 9.0 °C 1011.1 hPa WSW 31.4 km/h 31.4 km/h 69% 0.0 mm
17:34 14.6 °C 9.0 °C 1010.0 hPa WSW 31.4 km/h 31.4 km/h 70% 0.0 mm
17:40 14.7 °C 9.0 °C 1010.0 hPa WSW 31.4 km/h 31.4 km/h 70% 0.0 mm
17:45 14.6 °C 10.0 °C 1010.0 hPa WSW 31.4 km/h 31.4 km/h 71% 0.0 mm
17:50 14.6 °C 10.0 °C 1010.0 hPa WSW 31.4 km/h 31.4 km/h 71% 0.0 mm
17:55 14.5 °C 9.0 °C 1010.0 hPa WSW 31.4 km/h 31.4 km/h 69% 0.0 mm
18:00 14.5 °C 9.0 °C 1010.0 hPa WSW 31.4 km/h 31.4 km/h 70% 0.0 mm
18:05 14.5 °C 10.0 °C 1011.1 hPa WSW 31.4 km/h 31.4 km/h 71% 0.0 mm
18:10 14.4 °C 9.0 °C 1011.1 hPa WSW 31.4 km/h 31.4 km/h 70% 0.0 mm
18:15 14.1 °C 9.0 °C 1011.1 hPa WSW 31.4 km/h 31.4 km/h 71% 0.0 mm
18:20 14.0 °C 9.0 °C 1011.1 hPa WSW 31.4 km/h 31.4 km/h 71% 0.0 mm
18:25 13.9 °C 9.0 °C 1011.1 hPa WSW 31.4 km/h 31.4 km/h 71% 0.0 mm
18:30 13.8 °C 9.0 °C 1011.1 hPa WSW 31.4 km/h 31.4 km/h 72% 0.0 mm
18:35 13.7 °C 9.0 °C 1011.1 hPa WSW 31.4 km/h 31.4 km/h 74% 0.0 mm
18:40 13.7 °C 9.0 °C 1011.1 hPa WSW 31.4 km/h 31.4 km/h 74% 0.0 mm
18:45 13.7 °C 10.0 °C 1011.1 hPa WSW 31.4 km/h 31.4 km/h 75% 0.0 mm
18:50 13.6 °C 10.0 °C 1011.1 hPa WSW 31.4 km/h 31.4 km/h 76% 0.0 mm
18:55 13.6 °C 10.0 °C 1011.1 hPa WSW 31.4 km/h 31.4 km/h 76% 0.0 mm
19:00 13.6 °C 10.0 °C 1011.1 hPa WSW 31.4 km/h 31.4 km/h 76% 0.0 mm
19:05 13.7 °C 10.0 °C 1011.1 hPa WSW 31.4 km/h 31.4 km/h 77% 0.0 mm
19:10 13.7 °C 10.0 °C 1011.1 hPa WSW 31.4 km/h 31.4 km/h 77% 0.0 mm
19:15 13.6 °C 10.0 °C 1012.1 hPa WSW 31.4 km/h 31.4 km/h 77% 0.0 mm
19:20 13.6 °C 10.0 °C 1012.1 hPa WSW 31.4 km/h 31.4 km/h 77% 0.0 mm
19:25 13.5 °C 10.0 °C 1012.1 hPa WSW 31.4 km/h 31.4 km/h 77% 0.0 mm
19:30 13.4 °C 10.0 °C 1012.1 hPa WSW 31.4 km/h 31.4 km/h 77% 0.0 mm
19:35 13.3 °C 10.0 °C 1012.1 hPa WSW 31.4 km/h 31.4 km/h 77% 0.0 mm
19:40 13.3 °C 10.0 °C 1012.1 hPa WSW 31.4 km/h 31.4 km/h 77% 0.0 mm
19:45 13.2 °C 10.0 °C 1012.1 hPa Calm     78% 0.0 mm
19:50 13.2 °C 10.0 °C 1012.1 hPa Calm     78% 0.0 mm
19:55 13.0 °C 10.0 °C 1012.1 hPa Calm     79% 0.0 mm
20:00 13.0 °C 10.0 °C 1012.1 hPa Calm     79% 0.0 mm
20:05 13.0 °C 10.0 °C 1012.1 hPa Calm     79% 0.0 mm
20:10 12.9 °C 10.0 °C 1012.1 hPa SSW 2.1 km/h 2.1 km/h 80% 0.0 mm
20:15 12.8 °C 10.0 °C 1012.1 hPa Calm   2.1 km/h 81% 0.0 mm
20:20 12.7 °C 10.0 °C 1012.1 hPa Calm     81% 0.0 mm
20:25 12.7 °C 10.0 °C 1012.1 hPa Calm     81% 0.0 mm
20:35 12.5 °C 10.0 °C 1013.1 hPa Calm     82% 0.0 mm
20:40 12.5 °C 10.0 °C 1013.1 hPa South 5.8 km/h 7.6 km/h 82% 0.0 mm
20:46 12.4 °C 10.0 °C 1012.1 hPa Calm   7.6 km/h 82% 0.0 mm
20:51 12.2 °C 9.0 °C 1012.1 hPa Calm   5.8 km/h 82% 0.0 mm
20:56 12.1 °C 9.0 °C 1012.1 hPa Calm   6.4 km/h 82% 0.0 mm
21:01 11.8 °C 9.0 °C 1012.1 hPa Calm   6.4 km/h 83% 0.0 mm
21:06 11.7 °C 9.0 °C 1012.1 hPa Calm   4.7 km/h 84% 0.0 mm
21:11 11.7 °C 9.0 °C 1012.1 hPa SSW 9.0 km/h 9.0 km/h 84% 0.0 mm
21:16 11.7 °C 9.0 °C 1012.1 hPa SSW 9.0 km/h 9.0 km/h 84% 0.0 mm
21:21 11.6 °C 9.0 °C 1012.1 hPa SSE 9.7 km/h 9.7 km/h 85% 0.0 mm
21:26 11.5 °C 9.0 °C 1012.1 hPa SSE 9.7 km/h 9.7 km/h 85% 0.0 mm
21:31 11.5 °C 9.0 °C 1012.1 hPa SSE 9.7 km/h 9.7 km/h 85% 0.0 mm
21:36 11.4 °C 9.0 °C 1012.1 hPa Calm   9.7 km/h 86% 0.0 mm
21:41 11.4 °C 9.0 °C 1012.1 hPa Calm     87% 0.0 mm
21:46 11.5 °C 10.0 °C 1012.1 hPa SSW 1.4 km/h 1.4 km/h 87% 0.0 mm
21:51 11.6 °C 10.0 °C 1012.1 hPa SSW 1.4 km/h 1.4 km/h 87% 0.0 mm
21:53 11.5 °C 10.0 °C 1012.1 hPa Calm   1.4 km/h 87% 0.0 mm
21:58 11.5 °C 9.0 °C 1012.1 hPa Calm   1.4 km/h 86% 0.0 mm
22:03 11.4 °C 9.0 °C 1012.1 hPa SSW 4.7 km/h 4.7 km/h 86% 0.0 mm
22:08 11.3 °C 9.0 °C 1012.1 hPa South 5.8 km/h 6.1 km/h 86% 0.0 mm
22:13 11.3 °C 9.0 °C 1012.1 hPa South 9.0 km/h 9.0 km/h 86% 0.0 mm
22:18 11.3 °C 9.0 °C 1012.1 hPa South 9.0 km/h 9.0 km/h 86% 0.0 mm
22:23 11.2 °C 9.0 °C 1012.1 hPa SSW 1.8 km/h 9.0 km/h 87% 0.0 mm
22:28 11.1 °C 9.0 °C 1012.1 hPa SSW 7.9 km/h 9.0 km/h 86% 0.0 mm
22:33 11.1 °C 9.0 °C 1012.1 hPa Calm   9.7 km/h 87% 0.0 mm
22:38 11.1 °C 9.0 °C 1012.1 hPa SSW 7.9 km/h 9.7 km/h 87% 0.0 mm
22:43 11.1 °C 9.0 °C 1012.1 hPa SSW 4.0 km/h 9.7 km/h 87% 0.0 mm
22:48 11.0 °C 9.0 °C 1012.1 hPa South 3.5 km/h 9.7 km/h 86% 0.0 mm
22:53 11.0 °C 9.0 °C 1012.1 hPa SSW 6.4 km/h 6.4 km/h 86% 0.0 mm
23:03 10.9 °C 9.0 °C 1011.1 hPa SSW 6.4 km/h 6.4 km/h 88% 0.0 mm
23:08 10.9 °C 9.0 °C 1011.1 hPa SSW 6.4 km/h 6.4 km/h 88% 0.0 mm
23:13 11.0 °C 9.0 °C 1011.1 hPa SSW 3.2 km/h 3.2 km/h 88% 0.0 mm
23:18 11.0 °C 9.0 °C 1011.1 hPa SSW 3.2 km/h 3.2 km/h 88% 0.0 mm
23:23 11.0 °C 9.0 °C 1011.1 hPa Calm   3.2 km/h 88% 0.0 mm
23:28 11.0 °C 9.0 °C 1011.1 hPa Calm   3.2 km/h 88% 0.0 mm
23:33 11.1 °C 9.0 °C 1011.1 hPa Calm     88% 0.0 mm
23:38 11.1 °C 9.0 °C 1011.1 hPa Calm     89% 0.0 mm
23:44 11.2 °C 10.0 °C 1011.1 hPa SSE 5.8 km/h 5.8 km/h 89% 0.0 mm
23:49 11.3 °C 10.0 °C 1010.0 hPa Calm   9.0 km/h 89% 0.0 mm
23:54 11.4 °C 9.0 °C 1010.0 hPa South 7.6 km/h 9.0 km/h 88% 0.0 mm
23:59 11.4 °C 9.0 °C 1010.0 hPa Calm   9.0 km/h 88% 0.0 mm
Données Historique de Météo Turbie

Mise a jour : 18/06/2018 21:12:11
Généré par Cumulus 1.9.4 (1099)